Wind_Speed
87 88 88 87 85 85 84 83 82 81 80 79 82 87 87 84 81 79 78 77 75 73 69 64 65 64 60 55 53 49 46 44 42 40 40 37 34 35 34 31 30 30 30 32 34 33 29 26 23 22 21 20 19 18 17 16 16 15 14 12 10 8 7
89 90 90 88 87 87 86 84 84 83 81 80 82 85 84 83 82 80 80 79 77 75 71 66 64 65 62 57 53 50 47 46 44 42 41 40 38 37 34 31 31 32 32 31 33 33 29 24 22 21 20 19 19 18 16 16 17 16 16 15 13 11 9
90 90 89 89 90 89 88 86 85 84 83 82 82 83 82 82 81 80 80 81 79 76 73 70 69 67 63 59 54 50 47 46 46 45 46 45 42 37 34 34 35 35 34 32 33 34 30 24 21 20 19 20 20 18 16 16 17 17 18 18 17 15 12
90 90 89 90 91 91 90 88 87 85 84 83 83 82 81 81 81 81 81 82 82 79 75 72 70 67 63 59 57 51 45 45 48 48 50 51 46 40 38 38 38 36 33 33 33 35 32 27 23 20 20 22 22 19 18 18 18 19 19 19 19 18 16
90 90 90 90 91 91 91 91 90 88 86 85 84 83 83 82 81 81 82 84 84 81 77 73 68 66 64 59 58 56 49 46 50 51 52 54 51 46 42 39 40 40 35 34 37 38 37 33 26 22 24 28 26 23 21 19 19 19 19 20 20 20 17
88 89 89 90 90 91 91 92 91 91 90 88 86 87 86 84 82 80 81 83 84 80 78 76 69 66 68 65 60 61 56 51 53 53 52 52 51 51 48 40 39 41 39 38 41 42 41 38 31 25 26 31 31 26 22 19 18 20 21 21 22 22 19
88 89 90 91 92 92 92 93 93 93 93 91 89 89 87 86 84 82 81 82 84 81 79 80 75 68 69 71 67 65 63 59 57 56 55 52 50 52 52 45 40 40 40 39 42 44 44 41 36 28 26 30 32 27 22 20 19 20 22 22 23 24 22
89 90 91 93 94 93 92 93 94 95 94 93 92 90 88 87 86 85 82 81 83 83 82 83 81 74 70 72 73 71 69 64 59 58 60 60 58 57 54 48 40 37 37 36 38 42 43 41 38 33 28 30 31 27 26 28 26 22 21 22 23 24 24
89 89 91 92 93 92 93 94 95 96 95 95 94 91 89 87 86 85 84 81 81 83 84 84 85 83 77 75 76 77 76 72 65 62 63 66 66 63 60 54 43 37 37 38 38 41 41 39 38 35 31 31 32 31 31 32 29 24 22 23 24 24 24
89 88 89 91 92 93 95 96 97 96 96 96 94 91 89 87 85 84 83 82 80 81 83 83 84 86 85 81 81 80 79 78 74 69 67 67 68 66 64 61 56 48 44 42 44 48 48 43 38 35 33 32 34 34 31 28 27 25 23 24 25 25 24
90 88 87 89 90 92 95 98 98 97 97 97 95 91 90 87 85 84 83 83 81 79 81 83 83 85 86 86 86 84 81 81 79 75 71 69 70 70 67 65 64 60 53 47 45 47 49 46 42 38 36 34 35 37 36 33 31 29 26 26 27 27 27
91 88 86 87 89 90 93 97 98 97 97 98 95 93 92 90 86 84 83 82 81 80 81 82 84 84 83 84 87 88 86 83 82 80 76 71 69 71 71 70 67 63 60 56 52 47 46 46 44 41 37 34 36 39 40 38 36 34 31 29 29 29 29
91 89 88 88 90 91 94 97 97 97 97 96 95 94 93 91 88 86 85 83 81 81 81 82 84 84 82 84 87 89 88 87 85 84 83 79 74 71 71 74 72 67 62 60 58 52 48 47 45 42 38 36 37 41 43 40 37 36 35 33 32 32 33
90 89 89 90 91 92 95 97 97 97 96 96 95 94 93 92 90 88 86 84 83 82 82 82 83 85 85 87 90 91 90 90 89 87 87 86 83 78 74 74 75 72 66 62 59 55 51 49 45 43 43 41 39 40 42 41 39 36 35 34 34 35 36
88 89 91 91 91 92 94 96 97 97 97 97 96 96 95 93 92 90 88 86 84 83 84 85 85 85 86 88 91 92 91 90 90 90 88 87 87 85 81 77 75 73 69 65 61 57 53 51 46 44 46 46 42 39 39 40 40 39 38 38 37 38 40
88 89 91 92 92 92 93 94 96 97 97 97 97 97 97 96 94 93 91 89 88 86 85 86 87 87 86 87 90 91 90 89 89 90 89 88 87 87 86 84 81 77 73 69 65 61 58 55 51 49 51 51 48 45 42 40 42 42 42 41 40 39 42
87 89 90 92 93 92 92 95 97 97 96 96 97 97 97 97 97 97 95 94 93 91 88 87 87 88 89 89 90 91 91 90 89 88 88 88 88 88 88 87 86 83 80 76 71 67 65 62 59 57 57 58 56 54 50 46 46 47 45 44 41 38 39
88 89 90 91 92 92 93 95 97 98 97 96 96 97 98 98 99 99 98 97 96 95 93 91 89 90 91 92 92 91 91 91 91 90 88 87 88 89 88 87 87 86 84 81 78 75 72 70 68 66 65 64 63 62 56 51 53 55 52 50 47 45 45
89 90 90 90 90 91 92 93 95 98 97 94 96 98 98 99 100 100 100 99 99 98 97 96 94 92 92 92 93 93 92 92 91 92 91 89 89 89 89 88 87 87 86 84 82 82 80 78 76 74 73 71 70 69 64 58 57 60 60 59 57 54 53
90 90 90 90 90 91 91 91 93 96 96 94 94 97 98 99 100 100 101 100 100 100 99 99 98 95 93 92 92 94 94 93 92 92 93 93 92 92 91 91 90 89 89 89 86 85 86 86 83 81 80 79 77 76 73 67 61 61 63 65 65 63 62
91 91 90 91 90 89 90 91 91 93 95 95 95 96 98 100 100 100 101 102 102 102 101 101 99 98 95 93 92 93 94 94 94 94 94 94 94 94 93 92 92 92 92 92 91 89 89 90 90 87 85 84 83 82 81 77 71 68 67 69 71 72 73
92 91 90 91 90 90 90 91 90 91 93 95 97 97 98 99 100 101 103 104 104 104 104 103 101 100 98 96 94 93 93 95 96 96 96 96 95 95 95 94 94 93 93 93 93 93 92 91 91 91 89 87 87 87 86 85 83 80 79 79 79 80 80
91 91 90 90 91 91 92 91 90 89 90 93 97 99 99 99 99 101 103 104 104 105 105 104 103 102 101 100 97 95 93 94 97 99 99 99 98 97 96 96 95 95 94 94 93 94 94 93 92 92 91 90 90 90 90 89 88 87 87 87 86 86 85
91 91 90 91 91 91 91 91 91 91 91 92 95 98 100 99 98 100 102 103 104 105 105 105 105 105 104 103 101 98 96 96 98 101 102 102 102 100 99 97 97 96 96 95 95 95 96 95 94 93 92 92 92 92 92 91 90 89 88 88 88 88 89
94 93 91 91 91 91 91 92 92 93 93 92 93 96 100 100 99 99 101 103 104 106 106 107 107 108 108 107 104 102 101 101 102 103 103 104 103 102 101 100 99 98 97 96 96 95 96 97 97 95 95 94 94 94 93 93 92 91 89 88 88 88 89
96 95 93 92 92 92 93 93 94 94 94 94 95 96 98 99 101 101 101 103 105 106 107 108 109 110 110 109 108 107 106 106 106 106 105 105 104 102 102 102 101 100 100 99 98 97 97 98 99 99 98 97 97 97 97 96 95 94 92 90 90 89 89
95 96 95 94 93 93 94 95 95 95 95 96 97 97 98 99 101 102 102 103 105 106 107 108 109 110 111 111 111 111 110 109 109 108 108 107 105 104 103 103 103 103 102 102 101 101 100 100 100 100 100 100 99 99 99 100 99 98 96 94 93 92 92
89 93 96 96 96 96 96 97 98 97 97 97 98 99 100 100 101 102 104 105 105 106 107 108 109 111 112 113 113 113 113 112 112 112 111 110 109 108 106 105 105 105 105 104 104 104 104 103 102 101 101 101 101 101 101 101 101 101 101 100 98 96 95
79 85 90 94 97 98 99 99 100 100 100 100 100 101 102 102 102 102 104 105 106 107 108 109 110 111 112 113 114 115 115 116 116 115 115 114 113 112 111 109 108 107 107 107 106 106 106 105 105 105 104 103 103 103 103 103 102 102 103 103 103 102 101
70 75 81 87 92 96 99 100 101 101 101 101 101 102 102 103 103 103 103 105 107 108 109 111 111 112 112 113 114 115 117 118 118 119 118 118 117 116 115 114 113 111 110 109 108 108 107 107 108 108 107 107 106 106 105 105 104 104 104 104 104 104 104
63 67 72 77 83 89 94 98 101 102 103 104 104 104 105 105 104 104 105 106 107 109 111 112 113 113 113 114 114 115 116 118 119 120 121 120 120 120 120 119 118 116 114 112 111 110 109 110 110 110 110 109 109 108 108 107 106 106 106 106 105 105 105
58 61 65 69 74 80 86 91 96 101 104 106 106 106 106 106 106 106 107 107 109 110 112 113 113 114 114 115 115 116 116 117 119 120 121 122 122 122 123 123 122 120 119 116 115 114 113 113 112 112 111 110 110 110 110 110 110 109 108 107 107 107 107
54 57 61 64 68 72 77 83 88 94 99 103 106 107 107 108 108 108 108 109 110 111 112 113 114 114 114 115 117 118 118 118 119 120 121 122 123 124 125 126 125 124 122 120 119 119 118 117 115 114 113 112 112 112 112 112 112 112 111 110 110 109 108
51 54 58 61 63 67 71 75 80 86 91 97 101 104 107 108 108 109 109 109 109 111 112 113 113 114 115 116 117 118 120 120 120 121 121 122 123 125 126 127 127 126 125 125 124 123 122 121 119 117 116 115 114 114 114 113 113 113 113 113 113 112 111
48 52 55 58 61 64 67 71 75 79 84 89 93 97 101 105 107 108 109 109 109 110 111 112 113 114 114 116 117 118 119 120 121 122 122 123 124 125 127 128 128 128 128 128 127 126 125 124 123 122 121 119 118 116 115 115 115 114 114 115 115 115 115
47 50 54 57 60 62 65 69 72 75 79 82 87 91 95 99 102 105 107 109 110 111 111 112 113 113 114 115 117 118 119 119 120 122 123 124 125 127 128 128 129 129 130 131 130 129 128 127 126 126 125 123 122 120 119 118 117 116 116 116 116 117 117
48 50 53 56 59 61 64 67 70 73 77 80 83 86 90 93 97 100 103 106 108 109 110 111 112 113 114 115 116 117 118 118 119 121 123 125 126 127 128 128 129 130 131 132 132 131 130 130 130 129 128 127 125 124 123 122 120 119 118 118 118 118 118
Wind_Direction
213 214 214 216 217 218 217 215 215 216 215 216 217 218 217 215 214 215 216 216 217 219 219 219 222 223 222 221 221 223 222 221 222 224 224 221 216 217 217 217 221 225 227 228 227 225 224 232 244 252 257 261 265 269 270 271 275 277 274 272 271 273 278
214 214 214 215 216 218 218 216 215 215 215 216 218 219 217 216 215 215 217 217 218 219 219 218 220 221 221 221 221 222 220 218 219 217 216 217 217 216 216 217 219 222 223 225 227 225 221 229 241 251 259 263 266 268 264 265 270 272 270 268 267 268 267
214 214 215 215 216 217 217 217 217 216 216 216 218 218 217 215 215 215 216 218 218 218 218 218 220 221 221 220 219 217 216 215 215 214 213 216 218 216 214 214 216 219 221 222 225 224 221 228 238 245 255 262 266 264 255 255 261 262 262 261 263 265 261
213 213 214 216 217 218 217 217 217 217 217 217 217 218 217 215 215 214 215 216 217 217 217 217 219 220 219 219 218 215 214 215 215 215 216 218 219 216 215 216 213 213 217 221 225 225 223 229 236 241 252 261 263 257 245 245 251 252 252 253 254 256 255
213 213 214 216 217 218 219 218 217 217 218 218 217 217 216 214 214 214 214 215 216 216 217 217 218 219 218 216 216 215 214 216 217 218 219 220 220 219 219 219 214 211 214 220 226 227 226 227 232 238 248 256 258 248 240 246 255 254 253 254 253 253 253
214 214 214 216 217 219 220 219 218 218 218 217 217 217 215 213 213 213 214 215 215 215 216 216 215 216 216 214 213 213 211 212 215 215 217 218 218 218 218 217 213 213 217 223 227 229 228 228 232 236 241 249 253 246 242 255 261 253 252 255 255 254 251
213 213 213 215 216 218 220 220 219 220 219 218 218 218 216 214 214 213 214 215 215 214 215 215 213 213 214 213 214 213 209 209 212 213 214 213 212 213 215 214 214 218 223 227 229 230 229 230 236 240 237 244 251 247 245 256 256 249 252 256 254 252 250
213 213 213 214 215 216 219 221 220 220 220 220 219 218 216 215 215 214 214 214 215 215 215 216 215 214 214 214 215 215 213 211 212 214 216 217 218 219 218 215 217 223 224 224 226 229 230 231 235 238 232 237 245 241 237 241 237 236 248 255 252 248 248
214 214 214 214 215 215 218 220 221 220 221 221 221 220 218 216 215 216 215 214 214 215 216 216 217 216 216 215 215 217 217 215 214 216 219 221 223 225 221 214 212 215 218 223 227 229 232 234 236 238 232 231 236 235 235 239 236 235 248 258 254 247 248
214 215 215 215 215 216 217 219 220 220 220 222 222 221 220 218 217 217 217 215 214 215 216 217 217 218 217 216 216 217 218 218 216 218 220 222 222 224 222 218 215 215 218 226 230 231 233 236 236 236 232 228 229 231 235 238 236 236 247 257 256 248 246
214 215 216 216 216 217 219 220 221 220 220 221 221 221 222 221 218 217 218 218 216 216 217 217 218 218 218 218 218 218 218 219 218 217 219 222 223 224 223 220 218 217 219 223 225 227 229 231 231 231 228 223 222 225 229 230 227 226 231 243 250 249 248
214 215 215 216 217 218 219 221 221 221 221 221 221 221 221 221 220 218 219 219 217 217 217 218 218 218 219 220 220 219 219 219 218 217 218 220 223 225 225 223 220 218 219 222 225 227 226 226 229 229 223 219 219 223 226 226 224 220 218 224 235 243 246
214 214 215 216 218 219 220 220 220 220 222 221 221 222 222 221 221 220 219 219 218 217 218 219 219 218 218 220 220 220 220 220 219 219 219 220 223 225 225 225 223 221 220 221 225 227 225 224 227 225 216 213 216 221 225 225 224 223 222 222 226 232 236
214 214 215 217 218 220 221 220 219 219 221 221 221 222 222 222 222 221 220 220 219 218 218 219 220 219 219 221 221 220 220 220 220 220 220 221 223 225 225 225 225 224 222 221 222 224 222 222 223 218 211 209 211 219 225 226 224 223 225 227 228 229 231
214 214 216 217 218 221 222 222 220 219 220 220 220 221 222 222 222 221 221 221 221 220 219 219 220 220 221 222 222 221 221 221 221 221 221 222 223 224 225 225 225 224 223 221 221 221 219 219 218 211 207 208 209 216 225 226 223 222 223 226 228 231 232
215 215 216 217 218 220 222 223 222 220 220 220 220 220 221 221 221 221 221 221 221 221 221 220 220 221 222 223 224 223 222 222 222 223 223 223 223 224 225 226 226 226 225 222 221 219 218 218 216 210 209 210 209 211 215 218 219 220 221 223 227 231 234
216 216 217 218 218 219 221 222 222 221 220 220 220 221 221 221 221 221 221 221 221 221 221 221 221 221 222 223 224 224 223 222 223 223 223 224 224 225 226 227 227 228 227 224 221 219 217 218 218 214 213 215 215 214 214 216 221 222 219 219 222 225 226
216 216 217 218 219 219 221 222 223 222 220 219 220 220 220 221 222 222 221 221 221 221 221 221 221 222 222 223 224 225 224 223 223 223 224 224 224 225 226 227 227 227 227 225 222 219 218 219 221 219 215 215 216 216 217 223 229 230 223 219 220 222 222
218 217 217 218 219 220 221 223 224 223 221 219 220 221 221 221 222 223 222 222 222 222 222 222 221 221 222 223 225 225 225 224 224 224 224 224 224 224 225 226 226 226 226 225 223 220 219 220 222 222 221 219 217 216 218 224 230 232 229 224 223 225 227
219 218 219 218 219 220 221 222 224 224 222 220 220 222 222 221 222 223 223 223 223 223 224 224 223 222 222 223 225 226 227 226 225 225 225 225 224 224 225 225 226 226 226 226 225 223 221 221 222 224 225 224 223 221 222 225 226 227 227 226 225 226 230
219 219 219 220 219 220 221 222 223 224 224 221 220 222 222 222 222 223 223 224 224 224 225 225 225 224 223 223 224 226 228 228 227 226 226 226 226 225 225 225 226 226 226 227 227 226 224 223 224 225 227 227 228 227 227 227 225 223 223 225 227 229 232
220 220 219 220 220 221 221 222 223 224 224 223 222 222 223 223 222 222 223 223 223 224 225 225 226 226 225 224 224 225 227 229 229 228 227 227 227 227 226 226 226 227 227 227 228 228 227 225 225 226 227 228 229 230 230 230 229 227 227 229 231 234 236
221 221 220 221 221 222 222 222 223 223 224 224 224 223 222 223 223 223 223 223 224 224 225 225 226 227 227 226 225 225 226 229 230 231 229 228 227 227 227 227 227 228 228 228 228 228 228 227 227 227 228 228 228 230 231 232 233 233 233 233 235 237 239
222 222 221 222 222 223 224 223 223 223 223 224 226 225 224 222 223 224 224 224 224 224 225 225 226 226 227 227 226 226 226 227 230 231 231 230 229 228 227 228 228 228 229 229 229 229 229 229 229 228 228 228 228 229 230 232 234 235 236 237 238 239 240
223 222 222 222 223 224 225 225 225 224 224 224 226 227 226 224 223 224 224 224 224 224 224 225 225 225 226 227 226 226 226 227 228 230 231 232 231 229 229 229 229 229 229 229 229 230 230 230 230 229 228 228 228 229 230 232 233 235 236 238 239 240 241
224 224 223 223 223 224 225 226 226 226 225 224 225 227 227 227 225 224 224 225 225 225 225 225 225 226 226 226 227 226 226 227 228 230 231 233 233 232 231 230 230 230 229 229 229 230 230 230 230 230 229 229 230 231 232 233 233 234 235 237 238 239 241
224 225 224 224 225 225 226 227 228 227 226 225 225 226 227 228 228 226 225 225 226 226 226 226 226 227 227 227 227 227 227 228 229 230 231 232 233 233 232 232 231 231 231 230 229 229 230 231 231 231 230 231 231 232 233 234 234 234 234 235 236 237 239
224 225 225 225 225 226 226 227 228 229 228 227 227 227 227 228 229 229 228 227 226 226 226 226 227 227 227 227 227 227 228 228 229 230 230 232 233 234 234 233 232 232 232 231 231 230 230 231 231 231 231 231 231 232 232 233 234 234 235 235 236 237 238
224 225 225 226 226 226 227 228 229 230 230 229 229 228 228 228 228 229 230 229 228 228 227 227 227 227 228 228 228 228 228 229 229 230 231 231 232 233 234 234 234 233 233 233 232 232 231 231 232 232 232 232 232 232 232 233 234 235 236 236 237 237 238
225 224 225 225 226 227 227 228 229 230 231 231 231 231 230 230 229 229 230 231 231 230 229 228 228 227 228 228 229 229 229 229 230 230 231 231 232 233 233 234 234 234 234 234 234 234 233 233 233 233 232 232 232 233 233 233 234 235 236 237 238 238 238
227 226 225 226 226 227 227 228 229 230 231 232 232 232 232 232 231 230 230 231 231 232 231 230 229 228 228 228 229 230 230 231 231 231 232 232 233 233 234 234 234 235 235 235 235 235 235 234 234 234 234 233 233 233 233 234 234 235 236 237 238 239 239
230 228 227 227 227 227 227 228 229 230 231 232 232 233 233 233 233 232 231 231 231 232 232 232 232 230 229 229 229 230 231 231 232 232 232 233 233 234 235 235 235 235 235 235 235 235 236 236 235 235 235 235 234 234 234 234 234 235 235 236 238 239 240
233 232 230 229 228 229 229 229 229 230 231 232 233 233 234 234 234 234 233 233 233 233 233 233 233 233 232 231 230 230 231 231 232 233 233 233 234 234 235 236 236 236 236 236 236 236 236 236 236 236 236 236 236 235 235 235 235 235 235 236 237 238 239
236 235 234 233 231 230 230 230 231 231 231 232 233 234 235 235 235 235 235 235 234 234 234 235 235 234 234 234 233 232 232 232 232 233 233 234 234 235 236 236 237 237 237 237 237 237 237 238 238 237 237 237 237 237 237 236 236 236 236 236 237 238 238
240 237 236 234 233 232 232 231 232 232 233 233 234 234 235 236 236 236 236 237 236 236 236 236 236 236 236 236 235 235 234 234 234 234 234 234 235 235 236 237 237 238 238 238 238 238 238 238 239 239 239 238 238 238 238 238 237 237 237 237 237 237 238
244 242 239 236 234 233 233 233 232 232 233 234 235 235 235 235 236 237 237 237 237 237 237 237 237 236 236 237 237 237 237 236 236 236 235 235 235 235 236 237 237 238 239 239 239 239 239 239 239 239 240 240 239 239 239 239 239 238 238 238 238 238 238
245 244 243 240 237 235 234 234 234 233 233 234 235 236 236 236 236 236 237 237 237 238 238 238 238 237 237 237 237 237 238 237 237 237 237 237 237 237 237 237 238 238 239 240 240 240 240 240 240 240 240 240 241 241 240 240 240 239 239 239 239 239 239
Height
10828 10833 10840 10848 10853 10856 10863 10871 10877 10881 10889 10895 10894 10893 10905 10920 10928 10934 10939 10944 10947 10952 10961 10967 10968 10970 10975 10979 10982 10987 10991 10995 10998 11001 11004 11006 11008 11009 11010 11012 11014 11015 11016 11017 11019 11021 11023 11024 11025 11027 11028 11029 11031 11032 11034 11035 11036 11037 11037 11038 11038 11037 11037
10821 10827 10834 10840 10845 10848 10856 10864 10869 10874 10881 10885 10884 10889 10905 10918 10924 10929 10934 10939 10943 10948 10956 10960 10961 10966 10971 10976 10980 10984 10987 10992 10996 11000 11002 11003 11005 11007 11008 11009 11011 11011 11013 11015 11017 11019 11020 11022 11024 11025 11027 11028 11029 11031 11033 11034 11035 11036 11036 11037 11037 11037 11037
10814 10823 10830 10834 10837 10840 10848 10857 10863 10868 10873 10876 10878 10886 10899 10910 10917 10923 10927 10932 10938 10943 10948 10952 10955 10961 10968 10973 10976 10978 10982 10988 10992 10997 10999 11000 11001 11003 11004 11006 11008 11010 11012 11014 11015 11016 11018 11021 11022 11024 11025 11026 11028 11029 11031 11033 11034 11034 11034 11035 11036 11036 11036
10808 10817 10823 10827 10831 10835 10842 10848 10853 10859 10864 10868 10873 10881 10893 10903 10909 10914 10918 10922 10927 10932 10938 10943 10949 10958 10964 10969 10973 10976 10980 10984 10988 10993 10995 10996 10999 11000 11001 11003 11006 11009 11010 11011 11012 11014 11017 11020 11021 11023 11024 11025 11027 11028 11029 11031 11032 11032 11033 11033 11034 11034 11035
10804 10812 10817 10822 10827 10832 10835 10838 10844 10850 10853 10859 10866 10872 10882 10892 10899 10905 10909 10912 10917 10925 10932 10939 10949 10956 10960 10965 10971 10975 10978 10981 10984 10989 10992 10994 10996 10996 10998 11001 11004 11005 11007 11008 11010 11012 11015 11017 11019 11021 11022 11023 11025 11025 11027 11028 11030 11031 11032 11032 11033 11033 11034
10798 10806 10812 10817 10821 10823 10825 10830 10838 10840 10842 10851 10856 10860 10871 10883 10891 10898 10902 10905 10914 10923 10928 10936 10944 10946 10950 10958 10964 10967 10971 10972 10974 10980 10986 10989 10990 10991 10994 10999 11001 11003 11005 11007 11007 11009 11011 11013 11015 11018 11020 11021 11022 11023 11025 11027 11028 11029 11030 11031 11032 11033 11033
10789 10796 10801 10804 10809 10814 10817 10823 10829 10831 10836 10844 10848 10854 10868 10880 10885 10891 10896 10901 10910 10917 10921 10926 10931 10934 10941 10951 10956 10959 10962 10963 10966 10973 10979 10982 10982 10985 10991 10996 10999 11001 11003 11006 11006 11006 11007 11010 11013 11016 11017 11018 11020 11022 11023 11023 11024 11026 11027 11028 11030 11031 11032
10779 10784 10788 10793 10800 10808 10810 10812 10816 10822 10831 10838 10843 10852 10864 10873 10879 10884 10890 10897 10905 10911 10914 10919 10924 10929 10936 10944 10949 10954 10957 10960 10966 10971 10973 10974 10976 10981 10988 10995 10998 10999 11001 11003 11002 11001 11003 11007 11010 11013 11015 11016 11018 11020 11017 11015 11016 11019 11022 11025 11027 11029 11031
10772 10776 10781 10788 10796 10800 10799 10798 10805 10817 10827 10831 10838 10849 10858 10867 10875 10880 10885 10892 10898 10903 10908 10914 10919 10924 10930 10937 10942 10946 10951 10956 10962 10964 10965 10967 10970 10975 10984 10991 10994 10995 10997 10999 11000 11000 11000 11004 11008 11012 11013 11014 11015 11015 11013 11011 11012 11015 11019 11023 11025 11027 11029
10766 10770 10776 10784 10789 10791 10788 10787 10797 10811 10819 10824 10833 10845 10854 10862 10870 10877 10882 10888 10893 10898 10904 10909 10913 10916 10923 10929 10934 10938 10943 10949 10955 10956 10957 10960 10963 10968 10975 10983 10988 10989 10990 10993 10995 10996 10997 11002 11008 11011 11012 11012 11012 11012 11013 11013 11014 11015 11019 11023 11024 11026 11027
10760 10766 10774 10780 10783 10783 10782 10783 10793 10805 10811 10817 10829 10840 10848 10856 10866 10873 10877 10883 10890 10895 10899 10903 10906 10909 10917 10923 10926 10930 10934 10940 10946 10950 10952 10955 10958 10961 10966 10973 10980 10983 10985 10986 10987 10989 10993 10999 11005 11007 11007 11008 11009 11010 11011 11012 11012 11014 11017 11022 11024 11025 11025
10756 10763 10769 10772 10773 10774 10774 10777 10789 10799 10803 10812 10824 10833 10839 10848 10858 10866 10870 10878 10886 10890 10892 10895 10898 10904 10912 10916 10918 10922 10927 10932 10938 10942 10946 10949 10952 10955 10958 10964 10971 10977 10980 10981 10982 10986 10990 10995 10999 11001 11004 11006 11006 11006 11006 11008 11009 11010 11012 11015 11019 11021 11022
10750 10757 10760 10761 10761 10761 10761 10766 10780 10791 10797 10809 10821 10827 10833 10841 10850 10859 10865 10871 10878 10882 10886 10889 10891 10898 10903 10902 10905 10912 10919 10924 10930 10934 10938 10942 10945 10948 10952 10956 10962 10969 10974 10976 10979 10983 10987 10990 10993 10996 11000 11002 11001 11000 11001 11003 11006 11008 11009 11011 11012 11013 11016
10744 10750 10751 10752 10752 10751 10752 10760 10774 10785 10792 10803 10814 10820 10826 10834 10843 10852 10858 10863 10868 10874 10879 10881 10884 10889 10891 10889 10894 10903 10908 10914 10920 10924 10928 10933 10937 10941 10945 10949 10954 10961 10967 10971 10974 10978 10982 10985 10988 10991 10994 10995 10995 10995 10996 11000 11004 11006 11008 11009 11009 11010 11012
10738 10741 10740 10742 10744 10745 10748 10757 10769 10778 10784 10793 10804 10810 10817 10826 10834 10843 10850 10855 10861 10866 10869 10871 10874 10878 10882 10884 10888 10894 10899 10905 10911 10916 10921 10926 10931 10934 10938 10942 10947 10953 10959 10965 10969 10973 10977 10980 10983 10986 10988 10989 10991 10992 10992 10995 11000 11003 11004 11004 11005 11007 11009
10728 10729 10729 10731 10734 10737 10742 10750 10760 10770 10778 10787 10795 10802 10809 10816 10823 10831 10838 10843 10849 10854 10858 10861 10864 10869 10875 10877 10879 10885 10892 10897 10902 10907 10914 10920 10924 10928 10931 10936 10940 10945 10951 10957 10963 10967 10971 10974 10977 10979 10981 10982 10984 10984 10985 10989 10993 10996 10998 11000 11001 11003 11004
10716 10719 10721 10723 10727 10731 10735 10739 10748 10758 10769 10779 10786 10793 10801 10807 10812 10818 10824 10829 10835 10840 10846 10851 10856 10862 10866 10867 10869 10875 10883 10889 10894 10899 10905 10911 10916 10920 10923 10927 10931 10936 10942 10949 10955 10959 10963 10966 10969 10971 10973 10974 10975 10976 10978 10982 10985 10987 10990 10994 10996 10998 10999
10705 10709 10712 10716 10722 10726 10728 10732 10739 10747 10759 10771 10778 10783 10792 10797 10801 10807 10813 10819 10824 10829 10835 10840 10845 10851 10855 10857 10860 10866 10874 10881 10885 10890 10896 10901 10906 10910 10914 10918 10922 10927 10932 10938 10945 10950 10953 10956 10959 10962 10964 10964 10966 10969 10973 10976 10977 10979 10983 10987 10990 10992 10993
10695 10699 10705 10711 10716 10719 10722 10727 10730 10737 10753 10768 10772 10775 10782 10788 10791 10797 10804 10809 10814 10819 10823 10826 10832 10839 10845 10850 10854 10859 10864 10872 10877 10881 10886 10890 10895 10900 10904 10908 10912 10917 10922 10928 10934 10939 10943 10946 10949 10952 10954 10956 10959 10962 10965 10968 10971 10972 10976 10980 10983 10985 10986
10687 10693 10700 10705 10708 10712 10715 10719 10722 10730 10746 10761 10765 10766 10773 10778 10783 10789 10796 10801 10806 10810 10813 10817 10823 10831 10838 10843 10848 10851 10856 10863 10868 10872 10875 10879 10884 10889 10893 10898 10902 10907 10912 10917 10923 10928 10933 10936 10939 10942 10945 10949 10952 10955 10957 10961 10965 10966 10968 10971 10974 10976 10978
10678 10685 10692 10697 10701 10705 10708 10712 10717 10725 10738 10750 10755 10757 10761 10767 10774 10781 10786 10791 10797 10800 10804 10808 10815 10824 10832 10837 10841 10845 10849 10853 10857 10861 10865 10869 10873 10878 10883 10888 10892 10896 10901 10907 10912 10917 10922 10927 10930 10934 10937 10940 10943 10946 10949 10953 10957 10960 10961 10963 10965 10967 10969
10670 10678 10684 10689 10694 10697 10700 10706 10714 10721 10729 10737 10743 10747 10750 10755 10763 10769 10772 10778 10785 10789 10794 10800 10808 10817 10824 10829 10834 10837 10840 10844 10846 10849 10853 10857 10861 10866 10872 10877 10881 10886 10891 10897 10902 10907 10912 10917 10922 10926 10929 10931 10933 10936 10939 10943 10947 10950 10952 10954 10956 10958 10961
10664 10671 10677 10682 10686 10688 10693 10701 10708 10714 10720 10725 10729 10733 10738 10744 10752 10757 10761 10768 10775 10780 10785 10792 10799 10807 10813 10818 10825 10830 10833 10834 10834 10834 10838 10843 10848 10854 10860 10866 10871 10876 10880 10886 10892 10896 10901 10907 10913 10917 10919 10922 10924 10927 10930 10933 10936 10939 10943 10945 10948 10950 10952
10656 10663 10669 10675 10679 10683 10688 10694 10699 10704 10711 10716 10718 10720 10728 10737 10744 10747 10753 10760 10765 10770 10776 10782 10788 10794 10799 10805 10814 10821 10823 10822 10819 10818 10822 10828 10835 10843 10850 10855 10859 10865 10870 10876 10882 10886 10890 10896 10902 10907 10910 10912 10915 10918 10920 10923 10926 10930 10933 10936 10939 10941 10943
10647 10654 10661 10667 10672 10676 10681 10685 10689 10694 10703 10709 10709 10710 10718 10728 10732 10735 10742 10748 10751 10756 10762 10767 10772 10777 10782 10792 10802 10808 10809 10807 10805 10805 10809 10814 10823 10833 10841 10845 10849 10855 10861 10867 10872 10876 10880 10884 10890 10895 10899 10902 10905 10908 10911 10914 10918 10921 10925 10928 10930 10932 10934
10640 10646 10653 10660 10665 10669 10673 10674 10678 10684 10693 10698 10700 10702 10708 10714 10718 10724 10730 10734 10737 10742 10748 10754 10759 10764 10772 10781 10789 10792 10793 10793 10794 10796 10800 10805 10813 10823 10831 10835 10839 10845 10850 10856 10861 10865 10868 10872 10877 10883 10888 10892 10896 10898 10901 10905 10909 10912 10915 10918 10921 10923 10925
10633 10639 10646 10653 10658 10662 10664 10666 10669 10674 10680 10686 10690 10694 10698 10702 10707 10714 10718 10722 10727 10733 10738 10744 10750 10755 10762 10770 10775 10778 10781 10784 10787 10790 10794 10798 10804 10811 10817 10823 10828 10833 10838 10843 10848 10852 10856 10859 10865 10871 10877 10881 10885 10888 10891 10894 10898 10902 10905 10908 10911 10914 10917
10625 10631 10637 10643 10648 10651 10654 10656 10658 10662 10667 10673 10679 10682 10685 10690 10696 10702 10706 10711 10717 10723 10728 10734 10738 10743 10749 10755 10761 10765 10770 10773 10775 10778 10783 10788 10793 10798 10803 10809 10816 10821 10825 10830 10835 10839 10843 10848 10853 10859 10864 10869 10873 10877 10880 10883 10887 10891 10894 10897 10900 10904 10906
10617 10622 10628 10632 10636 10641 10644 10647 10648 10651 10656 10661 10666 10669 10674 10680 10686 10691 10696 10701 10706 10712 10717 10721 10725 10729 10735 10742 10747 10752 10756 10759 10761 10765 10770 10777 10782 10786 10790 10796 10802 10807 10812 10817 10822 10827 10832 10836 10841 10846 10851 10856 10860 10864 10868 10872 10876 10880 10883 10886 10890 10893 10896
10609 10614 10618 10622 10626 10630 10635 10638 10641 10644 10647 10651 10656 10660 10665 10670 10676 10682 10687 10690 10694 10698 10703 10707 10711 10718 10724 10730 10735 10739 10743 10746 10748 10752 10757 10764 10769 10774 10777 10781 10786 10792 10798 10804 10810 10816 10821 10825 10828 10832 10837 10842 10847 10852 10857 10862 10866 10869 10872 10874 10878 10882 10885
10602 10606 10611 10614 10617 10620 10624 10628 10631 10633 10636 10639 10642 10646 10650 10656 10663 10670 10675 10678 10681 10684 10688 10693 10700 10707 10714 10720 10723 10726 10729 10732 10735 10739 10745 10751 10757 10761 10764 10767 10772 10778 10784 10791 10798 10804 10808 10811 10814 10818 10823 10829 10835 10840 10845 10849 10853 10856 10860 10862 10865 10869 10873
10595 10599 10603 10606 10608 10611 10615 10619 10621 10623 10624 10626 10629 10633 10637 10643 10649 10656 10661 10665 10667 10670 10674 10681 10688 10696 10703 10708 10711 10714 10716 10719 10722 10727 10733 10739 10744 10748 10750 10753 10758 10764 10772 10779 10785 10790 10792 10796 10800 10805 10811 10817 10823 10827 10831 10835 10839 10844 10848 10851 10854 10857 10860
10589 10592 10594 10597 10600 10603 10606 10610 10612 10613 10614 10616 10619 10622 10626 10631 10636 10641 10646 10651 10655 10658 10662 10668 10675 10682 10689 10694 10698 10701 10704 10707 10710 10715 10721 10727 10731 10734 10736 10739 10744 10752 10759 10766 10770 10774 10777 10781 10787 10793 10799 10804 10808 10812 10817 10822 10826 10831 10835 10838 10842 10845 10848
10582 10584 10586 10589 10592 10595 10598 10601 10602 10603 10605 10607 10609 10613 10616 10619 10623 10628 10633 10638 10643 10647 10651 10656 10663 10669 10675 10680 10684 10688 10691 10695 10699 10703 10708 10714 10718 10720 10721 10724 10729 10738 10745 10750 10754 10758 10763 10768 10774 10781 10785 10789 10794 10799 10804 10808 10812 10816 10821 10825 10829 10833 10836
10573 10574 10576 10579 10582 10585 10588 10590 10592 10593 10595 10596 10600 10603 10606 10608 10612 10616 10621 10626 10631 10635 10639 10644 10650 10656 10661 10665 10669 10673 10678 10683 10688 10692 10697 10701 10703 10704 10705 10709 10715 10722 10728 10732 10737 10744 10750 10756 10761 10766 10770 10775 10781 10786 10790 10794 10798 10803 10808 10812 10816 10819 10823
10563 10564 10565 10567 10570 10573 10576 10578 10581 10583 10584 10585 10588 10591 10593 10596 10599 10603 10607 10611 10615 10619 10624 10628 10634 10641 10646 10650 10654 10658 10664 10671 10676 10680 10683 10685 10687 10689 10691 10696 10702 10707 10711 10715 10721 10729 10736 10742 10746 10749 10754 10760 10766 10771 10775 10779 10784 10789 10794 10798 10801 10805 10809
10554 10555 10555 10556 10559 10561 10564 10566 10569 10571 10572 10574 10576 10578 10580 10582 10585 10589 10593 10596 10600 10605 10609 10613 10618 10624 10630 10634 10638 10643 10649 10655 10660 10663 10666 10668 10672 10677 10682 10686 10690 10693 10694 10698 10705 10714 10720 10724 10728 10733 10739 10745 10750 10755 10760 10765 10770 10774 10779 10783 10787 10791 10795